Regional Weather Roundup
Issued by NWS

Current Version | Previous Version | Text Only | Print | Product List | Glossary Off
Versions: 1 2 3 4 5 6 7 8 9 10 11 12 13 14 15 16 17 18 19 20 21 22 23 24 25 26 27 28

000
ASUS44 KBMX 250810
RWRAL

ALABAMA REGIONAL WEATHER ROUNDUP
NATIONAL WEATHER SERVICE BIRMINGHAM AL
300 AM CDT SAT OCT 25 2014

NOTE: "FAIR" INDICATES FEW OR NO CLOUDS BELOW 12,000 FEET
WITH NO SIGNIFICANT WEATHER AND/OR OBSTRUCTIONS TO VISIBILITY.

THE REMARK "TC" DENOTES TEMPERATURE IN DEGREES CELSIUS.

ALZ001>011-014-016>018-020-250900-
NORTH ALABAMA

CITY           SKY/WX    TMP DP  RH WIND       PRES   REMARKS
MUSCLE SHOALS  CLEAR     46  43  89 CALM      30.11S
HUNTSVILLE     CLEAR     48  43  82 CALM      30.09S
DECATUR        CLEAR     44  42  93 CALM      30.10S
HALEYVILLE     FAIR      43  43 100 CALM      30.12F
GADSDEN        CLEAR     43  37  81 CALM      30.07F
$$

ALZ012-013-022-023-030>036-040>044-250900-
WEST CENTRAL ALABAMA

CITY           SKY/WX    TMP DP  RH WIND       PRES   REMARKS
TUSCALOOSA     CLEAR     48  44  86 CALM      30.09S
$$

ALZ015-024>027-033>036-040>044-250900-
CENTRAL ALABAMA

CITY           SKY/WX    TMP DP  RH WIND       PRES   REMARKS
BIRMINGHAM     CLEAR     46  42  86 CALM      30.09F
MONTGOMERY     CLEAR     46  43  89 W3        30.05F
SHELBY CO ARPT CLEAR     49  45  86 CALM      30.07F
MAXWELL AFB    CLEAR     45  45  99 W1        30.05F
GREENVILLE     FAIR      47  42  83 N3        30.04F
$$

ALZ019-021-028-029-037-038-045>048-250900-
EAST CENTRAL ALABAMA

CITY           SKY/WX    TMP DP  RH WIND       PRES   REMARKS
ANNISTON       CLEAR     41  39  93 CALM      30.07S
ALEXANDER CITY CLEAR     44  41  91 CALM      30.05S
AUBURN         CLEAR     50  39  66 N7        30.06S
$$

ALZ051>064-250900-
SOUTHWEST ALABAMA

CITY           SKY/WX    TMP DP  RH WIND       PRES   REMARKS
MOBILE         CLEAR     52  45  77 N6        30.08S
BROOKLEY FIELD CLEAR     51  46  83 CALM      30.09R
EVERGREEN      CLEAR     51  45  79 NW5       30.06F
$$

ALZ049-050-065>069-250900-
SOUTHEAST ALABAMA

CITY           SKY/WX    TMP DP  RH WIND       PRES   REMARKS
DOTHAN         CLEAR     50  45  83 NW7       30.05F
OZARK          CLEAR     49  44  82 W2        30.02F
TROY           CLEAR     42  40  92 CALM      30.04F
EUFAULA        FAIR      45  43  93 CALM      30.02S FOG
$$



USA.gov is the U.S. government's official web portal to all federal, state and local government web resources and services.